Regional Weather Roundup
Issued by NWS

Home | Current Version | Previous Version | Graphics & Text | Print | Product List | Glossary On
Versions: 1 2 3 4 5 6 7 8 9 10 11 12 13 14 15 16 17 18 19 20 21 22 23 24 25 26 27 28 29 30 31 32 33 34 35 36 37 38 39 40 41 42 43 44 45 46 47 48 49 50
492
ASUS43 KIND 030409
RWRIN

WEATHER ROUNDUP FOR INDIANA
NATIONAL WEATHER SERVICE INDIANAPOLIS IN
1200 AM EDT TUE MAY 03 2016

NOTE: "FAIR" INDICATES FEW OR NO CLOUDS BELOW 12,000 FEET WITH NO
SIGNIFICANT WEATHER AND/OR OBSTRUCTIONS TO VISIBILITY.

* - STATION DOES NOT REPORT WEATHER SUCH AS PRECIPITATION OR FOG.

+ - STATION NOT QUALITY CONTROLLED BY THE NATIONAL WEATHER SERVICE.
    USE DATA WITH CAUTION...ESPECIALLY DEWPOINT AND RELATIVE
    HUMIDITY OBSERVATIONS.

INZ001>003-010>013-019-020-030500-
NORTHWEST INDIANA

CITY           SKY/WX    TMP DP  RH WIND       PRES   REMARKS
GARY /AIRPORT/ PTCLDY    46  44  92 CALM      30.02S
KNOX *+        CLOUDY    46  39  76 CALM      30.00S
LA PORTE +     CLOUDY    49  42  78 CALM      30.01S
MICHIGAN CITY+ CLOUDY    45  43  93 CALM      30.01F
MONTICELLO +   CLOUDY    49  44  82 N5        29.99S
RENSSELAER +   CLOUDY    48  41  76 N6        30.00F
VALPARAISO     CLOUDY    47  40  76 CALM      30.01S

$$

LMZ046-743>745-030500-
SOUTHERN LAKE MICHIGAN

STATION/POSITION TIME  TEMP    WIND        PRES    WAVE
                       AIR SEA DIR/SP/G            HT
                 (UTC) (F)     (DEG/KT/KT) (MB)    (FT)
BURNS HARBOR     0300   47     340/  2/  3 1016.9S
MICHIGAN CITY    0300   46     320/  4/  4   N/A

$$

INZ004-005-014>016-021>024-030500-
NORTH CENTRAL INDIANA

CITY           SKY/WX    TMP DP  RH WIND       PRES   REMARKS
GOSHEN         CLOUDY    50  46  86 E3        29.99S
LOGANSPORT +   CLOUDY    50  48  93 CALM      29.99F
ROCHESTER +    CLOUDY    52  50  93 CALM      30.00S
SOUTH BEND     CLOUDY    48  41  76 N3        30.00S
WARSAW +       RAIN      48  46  93 CALM      29.99S

$$

INZ006>009-017-018-025>027-030500-
NORTHEAST INDIANA

CITY           SKY/WX    TMP DP  RH WIND       PRES   REMARKS
ANGOLA *+      CLOUDY    48  41  76 CALM      29.98S
AUBURN +       CLOUDY    48  46  93 CALM      30.00S
FORT WAYNE     CLOUDY    50  46  86 NE6       29.99S
HUNTINGTON +   CLOUDY   N/A N/A N/A NE3       29.98F HAZE

$$

INZ028-029-035-036-043>045-051>053-030500-
WEST CENTRAL INDIANA

CITY           SKY/WX    TMP DP  RH WIND       PRES   REMARKS
CRAWFORDSVL +  DRIZZLE   48  48 100 N5        29.99S
GREENCASTLE +  CLOUDY    50  50 100 N3        29.99S
LAFAYETTE      CLOUDY    50  46  86 N3        29.99S
TERRE HAUTE    CLOUDY    53  49  86 N3        29.99S

$$

INZ030>032-037>040-046>048-054>057-064-065-030500-
CENTRAL INDIANA

CITY           SKY/WX    TMP DP  RH WIND       PRES   REMARKS
CP ATTERBURY + MOCLDY    54  50  87 W5        29.96F
FRANKFORT +    DRIZZLE   50  50 100 NE7       30.00S
GREENWOOD *+   CLOUDY    54  52  94 N3        29.97S
INDIANAPOLIS   LGT RAIN  52  50  93 N7        29.95S FOG
-EAGLE CREEK   CLOUDY    52  51  97 N5        29.96S FOG
KOKOMO *+      CLOUDY    50  46  87 NE6       29.97F
MARION +       CLOUDY    50  49  97 NE6       29.98F FOG
SHELBYVILLE    CLOUDY    57  51  80 N3        29.94F
ZIONSVILLE +   CLOUDY    50  49  97 N6        29.98S FOG

$$

INZ033-034-041-042-049-050-058-059-030500-
EAST CENTRAL INDIANA

CITY           SKY/WX    TMP DP  RH WIND       PRES   REMARKS
MUNCIE         CLOUDY    53  48  83 NE6       29.97S

$$

INZ060-061-067>069-081>083-085>088-030500-
SOUTHWEST INDIANA

CITY           SKY/WX    TMP DP  RH WIND       PRES   REMARKS
EVANSVILLE     CLOUDY    56  49  77 NW5       30.00S
HUNTINGBURG *+ CLOUDY    54  48  82 W5        29.99S
WASHINGTON +   CLOUDY    54  52  94 NW5       29.98F

$$

INZ062-063-066-070>080-084-089>092-030500-
SOUTH CENTRAL AND SOUTHEAST INDIANA

CITY           SKY/WX    TMP DP  RH WIND       PRES   REMARKS
BEDFORD +      CLOUDY    54  54 100 NW5       29.96F
BLOOMINGTON    CLOUDY    53  49  86 W3        29.97F
MADISON *+     CLOUDY    55  50  82 CALM      29.97F
NORTH VERNON + CLOUDY   N/A N/A N/A CALM      29.96F
SEYMOUR +      CLOUDY    57  50  77 CALM      29.96F

$$





USA.gov is the U.S. government's official web portal to all federal, state and local government web resources and services.